Location: New Plymouth
(39.0670°S, 174.0830°E)
Time: 20:39:35
(UTC+12:00)

BEESAT - Visible Passes

Search period start: 22 September 2019 00:00
Search period end: 02 October 2019 01:00
Orbit: 701 x 708 km, 98.6° (Epoch: 21 September)

Date Brightness Start Highest point End Pass type
(mag) Time Alt. Az. Time Alt. Az. Time Alt. Az.
23 Sep ? 04:56:22 10° SE 05:00:26 27° E 05:04:27 10° NNE visible
24 Sep ? 05:39:11 10° SSE 05:44:03 75° ENE 05:48:49 10° N visible
25 Sep ? 04:45:55 10° SE 04:49:31 21° E 04:53:04 10° NE visible
26 Sep ? 05:28:25 10° SSE 05:33:11 57° E 05:37:54 10° N visible
27 Sep ? 04:35:40 10° SE 04:38:34 16° E 04:41:28 10° NE visible
28 Sep ? 05:17:42 10° SSE 05:22:19 43° E 05:26:53 10° N visible
29 Sep ? 05:25:48 10° ESE 05:27:37 12° E 05:29:25 10° ENE visible
30 Sep ? 06:07:04 10° SSE 06:11:26 33° E 06:15:45 10° NNE visible
